Location: Hermaringen
(48.5952°N, 10.2585°E)
Time: 22:10:34
(UTC+00:00)

Altair - Pass Details

Date: 25 February 2026
Orbit: 1502 x 1682 km, 47.2° (Epoch: 10 March)

Event Time Altitude Azimuth Distance (km) Brightness Sun altitude
Exits shadow 02:17:43 53° 137° (SE) 1,810 7.7 -37.5°
Drops below altitude 10° 02:26:03 10° 77° (ENE) 3,711 10.2 -36.3°
Sets 02:29:13 0° 73° (ENE) 4,717 11.0 -35.9°
